Location: Brede
(50.9167°N, 0.6000°E)
Time: 03:32:27
(UTC+00:00)

KORONAS-FOTON - Pass Details

Date: 08 August 2020
Orbit: 507 x 531 km, 82.4° (Epoch: 27 September)

Event Time Altitude Azimuth Distance (km) Brightness Sun altitude
Rises 01:58:46 0° 344° (NNW) 2,626 8.1 -18.4°
Reaches altitude 10° 02:00:57 10° 338° (NNW) 1,736 7.0 -18.3°
Maximum altitude 02:04:35 45° 266° (W) 706 4.2 -18.0°
Enters shadow 02:05:06 42° 241° (WSW) 741 4.1 -17.9°
